Weather History for Saginaw, MI

Change the Weather History Date:

Thursday, June 13, 2013

  Actual Average Record
Temperature  
Mean Temperature 70 °F 67 °F  
Max Temperature 77 °F 77 °F 90 °F (2001)
Min Temperature 62 °F 56 °F 46 °F (2006)
Degree Days  
Heating Degree Days 0    
Month to date heating degree days 45  
Since 1 June heating degree days 45  
Since 1 July heating degree days 6540  
Cooling Degree Days 5    
Month to date cooling degree days 28  
Year to date cooling degree days 102  
Since 1 June cooling degree days 28  
Growing Degree Days 20 (Base 50)    
Moisture  
Dew Point 58 °F    
Average Humidity 70    
Maximum Humidity 90    
Minimum Humidity 50    
Precipitation  
Precipitation 0.14 in 0.10 in 0.74 in (1999)
Month to date precipitation 0.37 1.29  
Year to date precipitation 18.72 12.94  
Snow  
Snow 0.00 in - - ()
Month to date snowfall 0.0  
Since 1 June snowfall 0.0  
Since 1 July snowfall 43.5  
Snow Depth 0.00 in    
Sea Level Pressure  
Sea Level Pressure 29.79 in    
Wind  
Wind Speed 10 mph (North)    
Max Wind Speed 18 mph    
Max Gust Speed 25 mph    
Visibility 9 miles    
Events Rain    
T = Trace of Precipitation, MM = Missing Value Source: NWS Daily Summary

Daily Weather History Graph

Daily Weather History Graph

Search for Another Location

Airport:

Trip Planner

Search our weather history database for the weather conditions in past years. The results will help you decide how hot, cold, wet, or windy it might be!

Date:

Astronomy

Jun. 13, 2013 Rise Set
Actual Time 5:54 AM EDT 9:18 PM EDT
Civil Twilight 5:18 AM EDT 9:54 PM EDT
Nautical Twilight 4:32 AM EDT 10:40 PM EDT
Astronomical Twilight 3:33 AM EDT 11:39 PM EDT
Moon 10:37 AM EDT (6/13) No Moon Set
Length of Visible Light 16h 35m
Length of Day
15h 23m
Waxing Crescent, 21% of the Moon is Illuminated
Jun 13
Waxing Crescent
Jun 16
First Quarter
Jun 23
Full
Jun 30
Last Quarter
Jul 8
New

Hourly Weather History & Observations

Time (EDT) Temp. Dew Point Humidity Pressure Visibility Wind Dir Wind Speed Gust Speed Precip Events Conditions
12:53 AM 66.0 °F 62.1 °F 87% 29.69 in 8.0 mi East 3.5 mph - 0.01 in Rain Light Rain
1:29 AM 64.4 °F 62.6 °F 94% 29.69 in 5.0 mi NNE 5.8 mph - 0.07 in Rain Light Rain
1:45 AM 64.4 °F 60.8 °F 88% 29.68 in 6.0 mi North 8.1 mph - 0.09 in Rain Light Rain
1:53 AM 64.0 °F 61.0 °F 90% 29.68 in 7.0 mi North 8.1 mph - 0.11 in Rain Light Rain
2:53 AM 64.0 °F 61.0 °F 90% 29.68 in 10.0 mi NE 6.9 mph - 0.02 in Rain Light Rain
4:53 AM 63.0 °F 60.1 °F 90% 29.68 in 10.0 mi North 10.4 mph - 0.00 in   Overcast
5:44 AM 62.6 °F 59.0 °F 88% 29.71 in 8.0 mi North 12.7 mph - N/A   Scattered Clouds
5:53 AM 62.1 °F 59.0 °F 90% 29.70 in 9.0 mi North 10.4 mph - N/A   Clear
6:53 AM 62.1 °F 57.9 °F 86% 29.72 in 10.0 mi NNW 9.2 mph - N/A   Partly Cloudy
7:53 AM 62.1 °F 55.9 °F 80% 29.73 in 10.0 mi NNW 10.4 mph - N/A   Clear
8:53 AM 66.9 °F 55.0 °F 66% 29.75 in 10.0 mi NW 10.4 mph - N/A   Clear
9:53 AM 68.0 °F 55.0 °F 63% 29.76 in 10.0 mi NNW 13.8 mph - N/A   Clear
10:53 AM 72.0 °F 54.0 °F 53% 29.77 in 10.0 mi North 13.8 mph - N/A   Clear
11:53 AM 75.0 °F 55.9 °F 51% 29.78 in 10.0 mi North 16.1 mph 20.7 mph N/A   Clear
12:53 PM 75.0 °F 57.0 °F 53% 29.79 in 10.0 mi NE 9.2 mph - N/A   Partly Cloudy
1:53 PM 77.0 °F 57.9 °F 52% 29.81 in 10.0 mi ENE 6.9 mph - N/A   Clear
2:53 PM 73.9 °F 57.9 °F 57% 29.83 in 10.0 mi ENE 10.4 mph - N/A   Mostly Cloudy
3:53 PM 73.9 °F 55.9 °F 53% 29.84 in 10.0 mi ENE 9.2 mph - N/A   Scattered Clouds
4:53 PM 75.9 °F 55.0 °F 48% 29.85 in 10.0 mi NE 6.9 mph - N/A   Partly Cloudy
5:53 PM 72.0 °F 54.0 °F 53% 29.88 in 10.0 mi North 12.7 mph - 0.00 in   Overcast
6:53 PM 72.0 °F 55.0 °F 55% 29.88 in 10.0 mi NNE 3.5 mph - 0.00 in   Scattered Clouds
7:53 PM 70.0 °F 57.0 °F 63% 29.89 in 10.0 mi NE 6.9 mph - 0.00 in Rain Light Rain
8:53 PM 66.0 °F 60.1 °F 81% 29.91 in 10.0 mi NW 4.6 mph - 0.01 in   Overcast
9:53 PM 66.9 °F 57.9 °F 73% 29.92 in 10.0 mi NNW 9.2 mph - N/A   Overcast
10:53 PM 64.9 °F 55.9 °F 73% 29.94 in 10.0 mi NNW 11.5 mph - N/A   Partly Cloudy
11:53 PM 63.0 °F 55.9 °F 78% 29.96 in 10.0 mi NNW 8.1 mph - N/A   Scattered Clouds